DateTimeUTC,F1_A11,F1_S11,BsB_S11,BsG_S11,BsR_S11,BbsB_S11,BbsG_S11,BbsR_S11,BaB_A11,BaG_A11,BaR_A11,Tu_S11,T_S11,Uu_S11,U_S11,P_S11,T1_A11
2021-08-14T01:00:00Z,00000200,20000000,,,,,,,-000.16,0000.42,0000.30,18.4,24.9,14.3,09.6,0674.4,30.9
2021-08-14T01:01:00Z,00000200,20000000,,,,,,,0000.01,-000.74,0000.14,18.4,24.9,14.3,09.6,0674.4,30.9
2021-08-14T01:02:00Z,00000200,20000000,,,,,,,0000.18,-000.09,-000.04,18.4,24.9,14.3,09.6,0674.4,30.9
2021-08-14T01:03:00Z,00000200,60000000,,,,,,,0006.57,0006.21,0005.05,18.4,24.9,14.3,09.6,0674.4,30.9
2021-08-14T01:04:00Z,00000200,40000000,0035.27,0030.66,0022.22,0004.16,0002.92,0002.73,0008.59,0007.94,0006.11,18.6,24.8,14.4,09.9,0675.3,30.9
2021-08-14T01:05:00Z,00000200,00000000,0034.98,0029.70,0022.02,0003.90,0003.44,0002.42,0008.27,0007.83,0006.36,18.6,24.7,14.5,10.0,0675.4,30.9
2021-08-14T01:06:00Z,00000200,00000000,0033.94,0029.52,0021.69,0003.67,0003.35,0002.39,0007.96,0007.44,0006.18,18.6,24.7,14.5,10.0,0675.4,30.9
2021-08-14T01:07:00Z,00000200,00000000,0033.93,0029.11,0020.56,0003.70,0003.28,0002.28,0007.56,0007.69,0005.96,18.6,24.7,14.5,10.0,0675.3,30.9
2021-08-14T01:08:00Z,00000200,00000000,0031.94,0026.95,0020.23,0003.34,0003.19,0002.50,0007.98,0006.93,0005.95,18.6,24.7,14.7,10.1,0675.4,30.9
2021-08-14T01:09:00Z,00000200,00000000,0030.27,0027.46,0019.53,0002.96,0002.44,0002.32,0006.94,0006.67,0005.46,18.6,24.7,14.8,10.2,0675.4,30.9
2021-08-14T01:10:00Z,00000200,00000000,0029.95,0025.62,0018.49,0003.41,0002.73,0002.34,0007.60,0007.02,0005.61,18.6,24.7,15.0,10.3,0675.4,30.9
2021-08-14T01:11:00Z,00000200,00000000,0028.29,0024.80,0018.21,0003.83,0002.65,0001.77,0006.71,0006.19,0005.17,18.6,24.7,15.0,10.3,0675.4,30.9
2021-08-14T01:12:00Z,00000200,00000000,0028.55,0023.02,0016.58,0002.60,0002.13,0002.25,0006.80,0006.66,0005.25,18.5,24.6,15.1,10.4,0675.4,30.9
2021-08-14T01:13:00Z,00000200,00000000,0026.67,0021.90,0016.09,0003.34,0002.61,0002.17,0006.84,0006.14,0005.02,18.5,24.6,15.1,10.4,0675.4,30.9
2021-08-14T01:14:00Z,00000200,00000000,0024.45,0021.15,0015.40,0003.11,0002.30,0001.75,0005.56,0005.36,0004.39,18.5,24.6,15.3,10.5,0675.4,30.9
2021-08-14T01:15:00Z,00000200,00000000,0022.58,0019.04,0013.90,0002.63,0002.39,0001.67,0005.53,0004.95,0003.89,18.5,24.6,15.4,10.6,0675.4,30.9
2021-08-14T01:16:00Z,00000200,00000000,0020.32,0018.18,0012.85,0002.05,0001.86,0001.58,0005.12,0004.46,0003.82,18.5,24.6,15.6,10.8,0675.3,30.9
2021-08-14T01:17:00Z,00000200,00000000,0019.22,0016.08,0011.63,0002.24,0001.81,0001.59,0004.46,0004.04,0003.35,18.5,24.6,15.6,10.8,0675.3,30.9
2021-08-14T01:18:00Z,00000200,00000000,0019.13,0015.69,0011.08,0002.35,0001.54,0001.18,0004.24,0004.45,0003.39,18.5,24.6,15.7,10.9,0675.3,30.9
2021-08-14T01:19:00Z,00000200,00000000,0017.05,0014.33,0010.28,0001.59,0001.74,0000.82,0003.73,0003.47,0003.06,18.5,24.6,15.8,10.9,0675.3,30.9
2021-08-14T01:20:00Z,00000200,00000000,0015.36,0012.87,0009.77,0001.43,0001.60,0001.00,0003.92,0003.70,0002.56,18.5,24.6,15.8,11.0,0675.3,30.9
2021-08-14T01:21:00Z,00000200,00000000,0014.22,0012.80,0009.29,0001.36,0001.37,0001.22,0003.41,0003.28,0002.67,18.5,24.6,15.9,11.0,0675.3,30.9
2021-08-14T01:22:00Z,00000200,00000000,0012.37,0011.50,0008.17,0001.53,0001.68,0000.98,0003.07,0002.65,0002.62,18.5,24.6,15.9,11.0,0675.3,30.9
2021-08-14T01:23:00Z,00000200,00000000,0012.31,0011.01,0007.80,0001.66,0001.24,0000.83,0002.94,0002.88,0001.89,18.5,24.6,16.1,11.2,0675.3,30.9
2021-08-14T01:24:00Z,00000200,00000000,0013.06,0011.01,0007.76,0001.38,0001.35,0001.04,0002.74,0002.76,0002.31,18.5,24.6,16.2,11.2,0675.3,30.9
2021-08-14T01:25:00Z,00000200,00000000,0012.50,0010.74,0007.25,0001.50,0001.41,0000.95,0003.05,0002.55,0002.27,18.5,24.5,16.3,11.2,0675.3,30.9
2021-08-14T01:26:00Z,00000200,00000000,0011.22,0010.07,0007.47,0001.36,0001.58,0001.00,0002.77,0002.10,0001.82,18.5,24.5,16.3,11.2,0675.3,30.9
2021-08-14T01:27:00Z,00000200,00000000,0011.62,0009.67,0006.85,0001.32,0000.97,0000.50,0002.45,0002.52,0002.06,18.5,24.5,16.3,11.2,0675.3,30.9
2021-08-14T01:28:00Z,00000200,00000000,0011.19,0009.94,0006.47,0001.13,0001.09,0000.51,0002.94,0002.54,0002.05,18.6,24.6,16.2,11.2,0675.3,30.9
2021-08-14T01:29:00Z,00000200,00000000,0011.73,0009.33,0006.70,0001.26,0001.22,0000.94,0002.48,0002.48,0002.04,18.7,24.6,16.2,11.3,0675.3,30.9
2021-08-14T01:30:00Z,00000200,00000000,0011.17,0009.50,0006.64,0001.22,0001.07,0000.76,0002.43,0002.30,0001.42,18.7,24.7,16.2,11.3,0675.3,30.9
2021-08-14T01:31:00Z,00000200,00000000,0010.92,0009.02,0006.58,0001.32,0001.23,0001.01,0002.24,0002.28,0001.99,18.7,24.7,16.2,11.3,0675.3,30.9
2021-08-14T01:32:00Z,00000200,00000000,0010.88,0008.73,0006.44,0001.37,0000.86,0000.87,0002.44,0002.08,0001.91,18.8,24.7,16.2,11.3,0675.3,30.9
2021-08-14T01:33:00Z,00000200,00000000,0010.37,0008.46,0006.56,0001.39,0000.78,0000.66,0002.61,0002.15,0001.79,18.8,24.7,16.2,11.3,0675.3,30.9
2021-08-14T01:34:00Z,00000200,00000000,0009.92,0008.50,0006.12,0001.30,0001.42,0000.63,0002.27,0002.25,0001.70,18.8,24.7,16.2,11.3,0675.3,30.9
2021-08-14T01:35:00Z,00000200,00000000,0010.01,0008.29,0006.06,0000.43,0001.07,0000.87,0002.39,0002.31,0001.70,18.8,24.7,16.2,11.2,0675.3,30.9
2021-08-14T01:36:00Z,00000200,00000000,0009.59,0007.86,0006.05,0001.04,0000.98,0000.82,0002.01,0001.96,0001.79,18.8,24.7,16.3,11.3,0675.4,30.9
2021-08-14T01:37:00Z,00000200,00000000,0010.17,0007.83,0005.82,0001.83,0000.98,0000.60,0002.66,0002.14,0001.53,18.8,24.7,16.3,11.3,0675.4,30.9
2021-08-14T01:38:00Z,00000200,00000000,0009.38,0007.89,0005.54,0000.72,0000.94,0000.34,0001.79,0001.34,0001.59,18.7,24.7,16.3,11.3,0675.4,30.9
2021-08-14T01:39:00Z,00000200,00000000,0008.62,0007.73,0005.22,0000.97,0001.28,0000.86,0002.43,0002.38,0001.40,18.7,24.7,16.4,11.4,0675.4,30.9
2021-08-14T01:40:00Z,00000200,00000000,0009.18,0006.91,0005.08,0001.74,0001.04,0000.41,0001.54,0001.52,0001.63,18.7,24.7,16.5,11.4,0675.3,30.9
2021-08-14T01:41:00Z,00000200,00000000,0008.84,0006.65,0005.38,0000.54,0001.07,0000.41,0002.19,0001.96,0001.26,18.7,24.7,16.5,11.4,0675.3,30.9
2021-08-14T01:42:00Z,00000200,00000000,0008.22,0007.46,0004.67,0001.09,0001.20,0000.61,0001.64,0001.90,0001.10,18.7,24.7,16.6,11.5,0675.3,30.9
2021-08-14T01:43:00Z,00000200,00000000,0007.97,0006.99,0004.89,0000.38,0000.72,0000.67,0001.74,0001.58,0001.53,18.7,24.7,16.6,11.5,0675.2,30.9
2021-08-14T01:44:00Z,00000200,00000000,0007.55,0006.36,0004.99,0000.74,0000.70,0000.98,0002.01,0001.82,0001.47,18.7,24.7,16.7,11.5,0675.3,30.9
2021-08-14T01:45:00Z,00000200,00000000,0008.31,0006.38,0004.31,0000.60,0000.82,0000.39,0001.31,0001.15,0001.07,18.7,24.7,16.6,11.5,0675.3,30.9
2021-08-14T01:46:00Z,00000200,00000000,0007.25,0006.41,0004.55,0000.71,0000.88,0000.56,0002.04,0001.49,0001.18,18.7,24.6,16.8,11.6,0675.2,30.9
2021-08-14T01:47:00Z,00000200,00000000,0007.36,0006.01,0004.17,0001.36,0000.73,0000.63,0001.52,0001.73,0001.18,18.7,24.6,16.7,11.6,0675.2,30.9
2021-08-14T01:48:00Z,00000200,00000000,0006.69,0005.47,0003.80,0000.25,0000.91,0000.48,0001.51,0001.21,0001.48,18.7,24.6,16.8,11.7,0675.2,30.9
2021-08-14T01:49:00Z,00000200,00000000,0006.76,0006.13,0003.99,0000.94,0001.09,0000.51,0001.44,0001.36,0000.78,18.7,24.6,16.8,11.6,0675.3,30.9
2021-08-14T01:50:00Z,00000200,00000000,0006.28,0005.62,0004.00,0000.45,0000.80,0000.54,0001.73,0001.53,0001.29,18.7,24.6,16.9,11.7,0675.2,30.9
2021-08-14T01:51:00Z,00000200,00000000,0006.44,0005.23,0003.69,0000.33,0000.60,0000.62,0001.50,0001.51,0000.91,18.6,24.6,16.9,11.7,0675.2,30.9
2021-08-14T01:52:00Z,00000200,00000000,0005.19,0005.37,0003.85,0001.35,0000.27,0000.44,0000.89,0000.91,0000.85,18.6,24.6,17.0,11.8,0675.3,30.9
2021-08-14T01:53:00Z,00000200,00000000,0006.93,0005.05,0003.84,0001.26,0000.72,0000.48,0001.62,0001.23,0001.39,18.6,24.6,17.0,11.8,0675.2,30.9
2021-08-14T01:54:00Z,00000200,00000000,0006.01,0004.91,0003.37,0000.43,0000.69,0000.44,0001.54,0000.97,0000.55,18.6,24.6,17.1,11.9,0675.2,30.9
2021-08-14T01:55:00Z,00000200,00000000,0006.70,0005.06,0003.45,0000.63,0000.39,0000.48,0001.34,0001.67,0001.34,18.6,24.6,17.0,11.8,0675.2,30.8
2021-08-14T01:56:00Z,00000200,00000000,0005.43,0004.34,0002.96,0000.54,0000.54,0000.42,0001.55,0001.57,0001.21,18.6,24.6,17.2,12.0,0675.2,30.9
2021-08-14T01:57:00Z,00000200,40000000,,,,,,,-000.08,-000.25,-000.33,18.7,24.6,17.5,12.2,0675.1,30.9
2021-08-14T01:58:00Z,00000200,60000000,,,,,,,-000.09,-000.01,-000.18,18.4,24.7,17.0,11.5,0674.2,30.9
2021-08-14T01:59:00Z,00000200,20000000,,,,,,,-000.31,-000.26,-000.05,18.4,24.8,17.2,11.6,0674.2,30.9
